[[{"header":{"parameterUnit":"m.s-1","parameterCategory":1,"la1":30.2991,"la2":30.254,"lo1":-89.0895,"lo2":-89.0444,"dy":0.0017,"dx":0.0017,"nx":28,"ny":28,"refTime":"2023-08-04T03:00:00:Z","depth":0,"parameterNumber":2,"parameterNumberName":"U-component_of_WINDS"},"data":[0,0,0,0,0,0,0,0,0,0,0,0,0,0,0,0,0,0,0,0,0,0,0,0,0,0,0,0,0,0,0,0,0,0,0,0,0,0,0,0,0,0,0,0,0,0,0,0,0,0,0,0,0,0,0,0,0,0,1.8293,1.8295,0,1.8457,1.8459,1.846,1.8496,1.8494,1.8493,1.8492,1.866,1.8666,1.8671,0,0,0,0,0,0,0,0,0,0,0,0,0,1.8009,1.8014,1.8293,1.8295,1.8297,1.8456,1.8459,1.8461,1.8496,1.8494,1.8493,1.8492,1.8658,1.8665,1.8672,0,0,0,0,0,0,0,0,0,0,0,0,0,1.8149,1.8016,1.8292,1.8334,1.8339,1.8456,1.8459,1.8461,1.8496,1.8494,1.8493,1.8491,1.8656,1.8664,1.8673,1.876,0,0,1.8698,1.8702,0,0,0,0,0,0,0,0,1.8141,1.8159,1.8325,1.8331,1.8337,1.8454,1.842,1.8562,1.8497,1.8436,1.8492,1.849,1.8593,1.8606,1.8641,1.8768,1.8775,1.8699,1.8704,1.8708,1.871,0,0,0,0,0,0,0,1.8131,1.8152,1.8358,1.8328,1.8335,1.8343,1.8361,1.8447,1.8523,1.8442,1.8445,1.8463,1.8596,1.8633,1.8645,1.8778,1.8699,1.8706,1.8711,1.8715,1.8983,1.8985,0,0,0,0,0,0,1.8114,1.8144,1.8352,1.8363,1.8232,1.835,1.837,1.8418,1.8522,1.8536,1.8465,1.8464,1.862,1.8635,1.8651,1.876,1.8707,1.8715,1.872,1.8981,1.8984,1.8986,0,0,0,0,0,0,1.8108,1.8132,1.8346,1.8254,1.8282,1.8357,1.8411,1.8422,1.846,1.854,1.8553,1.8489,1.8619,1.864,1.8733,1.8766,1.8719,1.8727,1.8979,1.8982,1.8985,1.8977,0,0,0,0,0,0,1.81,1.813,1.8164,1.8255,1.8287,1.8424,1.8413,1.8427,1.8474,1.8475,1.8566,1.8579,1.8619,1.872,1.8741,1.8777,1.8733,1.8976,1.898,1.8984,1.8975,1.898,1.8984,0,0,0,0,0,1.8089,1.8156,1.8166,1.8191,1.8331,1.8426,1.8444,1.8489,1.8476,1.8511,1.8562,1.8576,1.8759,1.8729,1.8753,1.8792,1.8974,1.8979,1.8984,1.8973,1.8979,1.8984,0,0,0,0,0,0,1.8068,1.8168,1.8181,1.8278,1.8343,1.8432,1.8477,1.8494,1.8564,1.8562,1.8615,1.8635,1.8724,1.8768,1.8732,1.8881,1.8866,1.8876,1.8849,1.8856,1.886,1.8847,1.874,0,0,0,0,0,1.8074,1.8143,1.8228,1.8306,1.8338,1.8402,1.8445,1.8473,1.8543,1.8571,1.8629,1.8695,1.8768,1.8815,1.8886,1.8982,1.9001,1.902,1.9025,1.9028,1.9035,1.9088,1.9097,1.9002,1.9002,1.9002,0,0,1.8088,1.8152,1.8192,1.8303,1.8357,1.8426,1.8425,1.8499,1.8551,1.8582,1.8673,1.8718,1.8796,1.889,1.8934,1.8929,1.9066,1.9034,1.9036,1.9042,1.9094,1.9102,1.911,1.9005,1.9004,1.9004,0,0,1.8149,1.8205,1.8275,1.8329,1.8411,1.8453,1.847,1.8556,1.8587,1.8679,1.8703,1.8766,1.889,1.8944,1.8988,1.9069,1.9083,1.9091,1.9114,1.9164,1.9172,1.9179,1.9206,1.9215,1.9098,1.9098,1.9098,0,1.8156,1.8263,1.8309,1.8382,1.843,1.8461,1.8532,1.8582,1.8682,1.8714,1.8707,1.8862,1.8917,1.9024,1.9043,1.9078,1.9098,1.908,1.9167,1.9174,1.9181,1.9208,1.9218,1.9098,1.9098,1.9098,1.9098,0,1.8267,1.834,1.8387,1.8483,1.8536,1.8607,1.8664,1.8712,1.8736,1.8779,1.8871,1.8938,1.9023,1.9051,1.9075,1.9161,1.9154,1.9156,1.9142,1.919,1.9215,1.9226,1.9098,1.9098,1.9098,1.9098,0,0,1.8318,1.8438,1.8455,1.8498,1.859,1.8647,1.872,1.8802,1.8842,1.891,1.8971,1.9075,1.9077,1.9127,1.9158,1.9202,1.926,1.9199,1.9201,1.9206,1.9357,1.9353,1.9364,1.9271,1.9273,1.9275,1.935,0,1.8389,1.8519,1.8563,1.8672,1.8739,1.877,1.8833,1.8896,1.8938,1.9001,1.9047,1.9119,1.9117,1.9147,1.9193,1.9243,1.9291,1.9239,1.9328,1.933,1.9305,1.9378,1.9376,1.9443,1.936,1.9362,1.9363,0,1.8489,1.8558,1.8672,1.8755,1.8785,1.8841,1.8919,1.898,1.9052,1.9079,1.9134,1.9161,1.9238,1.922,1.9325,1.9289,1.9328,1.9358,1.9362,1.9371,1.9348,1.9387,1.9465,1.9475,1.938,1.9379,1.9377,0,1.8512,1.8634,1.8718,1.8755,1.8853,1.8892,1.8935,1.9005,1.9051,1.912,1.9151,1.9228,1.9269,1.9328,1.9375,1.9358,1.9476,1.9462,1.95,1.9499,1.9522,1.952,1.9606,1.955,1.955,1.955,1.955,0,1.8586,1.8654,1.873,1.8781,1.8859,1.8909,1.8984,1.9029,1.9091,1.9151,1.9183,1.9239,1.9299,1.9362,1.94,1.948,1.95,1.9523,1.9532,1.952,1.9516,1.9545,1.9541,1.9553,1.9552,1.9551,1.9551,0,1.8624,1.8678,1.8771,1.8857,1.888,1.8933,1.9007,1.9058,1.9101,1.9177,1.9197,1.9265,1.9342,1.9395,1.9493,1.9518,1.9605,1.9614,1.9581,1.9585,1.9619,1.9614,1.9725,1.9741,1.9676,1.9676,1.9677,0,1.8667,1.872,1.8812,1.8854,1.8897,1.8966,1.9013,1.9064,1.9112,1.9198,1.9238,1.9316,1.9382,1.9502,1.956,1.9635,1.9646,1.9679,1.9657,1.9642,1.9644,1.964,1.9645,1.9682,1.9682,1.9683,1.9683,0,1.8736,1.876,1.8827,1.8903,1.8959,1.9022,1.9085,1.9118,1.918,1.9232,1.9311,1.9361,1.9462,1.9539,1.9619,1.9663,1.9683,1.969,1.9702,1.9689,1.9667,1.9678,1.9588,1.9687,1.9686,1.9686,1.9686,1.9686,1.8777,1.8825,1.8897,1.897,1.9023,1.9081,1.9133,1.9182,1.9249,1.9334,1.936,1.9441,1.9511,1.9621,1.9666,1.973,1.9728,1.9746,1.9751,1.9754,1.9753,1.9658,1.9745,1.9745,1.9745,1.9745,1.9745,0,1.8846,1.8893,1.8961,1.9048,1.9105,1.912,1.919,1.9237,1.9308,1.9372,1.9435,1.9525,1.96,1.9663,1.9741,1.9779,1.979,1.9798,1.9795,1.9804,1.9751,1.9732,1.9787,1.9787,1.9787,1.9787,1.9787,1.9787,1.8888,1.897,1.9003,1.9111,1.9158,1.9238,1.9277,1.933,1.9381,1.9479,1.9541,1.9583,1.9646,1.9728,1.9797,1.9814,1.984,1.9845,1.9864,1.9813,1.9808,1.9803,1.9785,1.9851,1.9851,1.9912,1.9912,1.9913]},{"header":{"parameterUnit":"m.s-1","parameterCategory":1,"la1":30.2991,"la2":30.254,"lo1":-89.0895,"lo2":-89.0444,"dy":0.0017,"dx":0.0017,"nx":28,"ny":28,"refTime":"2023-08-04T03:00:00:Z","depth":0,"parameterNumber":3,"parameterNumberName":"V-component_of_WINDS"},"data":[0,0,0,0,0,0,0,0,0,0,0,0,0,0,0,0,0,0,0,0,0,0,0,0,0,0,0,0,0,0,0,0,0,0,0,0,0,0,0,0,0,0,0,0,0,0,0,0,0,0,0,0,0,0,0,0,0,0,5.6086,5.6085,0,5.6055,5.6054,5.6054,5.5959,5.5957,5.5955,5.5953,5.5923,5.5924,5.5926,0,0,0,0,0,0,0,0,0,0,0,0,0,5.6065,5.6066,5.6086,5.6085,5.6085,5.6055,5.6054,5.6054,5.5959,5.5957,5.5954,5.5952,5.5923,5.5924,5.5926,0,0,0,0,0,0,0,0,0,0,0,0,0,5.6058,5.6066,5.6086,5.6034,5.6029,5.6055,5.6054,5.6054,5.596,5.5957,5.5954,5.5951,5.5922,5.5924,5.5926,5.6,0,0,5.5931,5.5932,0,0,0,0,0,0,0,0,5.6059,5.6059,5.6042,5.6038,5.6032,5.6007,5.6036,5.6036,5.5961,5.5986,5.5953,5.5949,5.5954,5.5953,5.5954,5.5998,5.5997,5.5931,5.5932,5.5933,5.5934,0,0,0,0,0,0,0,5.6059,5.606,5.6073,5.6042,5.6036,5.6013,5.6009,5.6036,5.5988,5.5984,5.5977,5.5974,5.5951,5.5953,5.5953,5.5997,5.5931,5.5933,5.5934,5.5935,5.61,5.6103,0,0,0,0,0,0,5.6067,5.6061,5.6074,5.6073,5.6038,5.6016,5.6011,5.6019,5.5988,5.598,5.5977,5.597,5.5951,5.5951,5.5951,5.6035,5.5933,5.5935,5.5936,5.6097,5.6101,5.6105,0,0,0,0,0,0,5.6067,5.6069,5.6076,5.6065,5.6064,5.602,5.6029,5.602,5.6021,5.5983,5.5974,5.5988,5.5949,5.5949,5.5988,5.6033,5.5936,5.5937,5.6093,5.6098,5.6103,5.6205,0,0,0,0,0,0,5.6067,5.6069,5.6096,5.6066,5.6065,5.6113,5.6032,5.6021,5.6025,5.6015,5.599,5.5983,5.5946,5.5986,5.599,5.6034,5.5939,5.6089,5.6095,5.6101,5.6197,5.6213,5.6226,0,0,0,0,0,5.6066,5.6127,5.6098,5.61,5.6098,5.6116,5.6115,5.6071,5.6029,5.6056,5.6031,5.5984,5.6028,5.5991,5.5995,5.604,5.6086,5.6093,5.6101,5.6191,5.621,5.6226,0,0,0,0,0,0,5.6164,5.6122,5.609,5.6142,5.6133,5.6099,5.6132,5.6092,5.6095,5.6086,5.6032,5.6027,5.6075,5.6061,5.6021,5.611,5.6049,5.6058,5.6117,5.6134,5.6148,5.615,5.594,0,0,0,0,0,5.6192,5.6209,5.6172,5.6222,5.6219,5.6177,5.6183,5.615,5.6138,5.6134,5.6112,5.6103,5.6115,5.6124,5.6133,5.6195,5.6189,5.6228,5.6243,5.6255,5.6263,5.6295,5.6312,5.6129,5.6129,5.6129,0,0,5.6249,5.6228,5.6243,5.6241,5.623,5.625,5.6174,5.6198,5.6213,5.6138,5.6173,5.6157,5.6144,5.6196,5.6217,5.6186,5.6312,5.6264,5.6274,5.6275,5.6304,5.6322,5.6337,5.6134,5.6134,5.6133,0,0,5.6364,5.635,5.639,5.638,5.6365,5.6336,5.6346,5.6319,5.6305,5.634,5.6284,5.6301,5.6323,5.6315,5.6315,5.6428,5.6385,5.6433,5.6507,5.654,5.6554,5.6567,5.6607,5.6622,5.6441,5.6441,5.6441,0,5.6437,5.6464,5.6416,5.6443,5.6445,5.6378,5.6418,5.6412,5.64,5.6403,5.6368,5.6394,5.638,5.6429,5.6457,5.6459,5.6468,5.6435,5.6556,5.6568,5.6579,5.6617,5.6632,5.6447,5.6446,5.6446,5.6445,0,5.6555,5.6575,5.6609,5.6599,5.6604,5.6639,5.6596,5.6607,5.6574,5.655,5.6587,5.6569,5.6572,5.6582,5.655,5.6627,5.6608,5.6565,5.6503,5.6603,5.6638,5.6652,5.6455,5.6453,5.6451,5.645,0,0,5.6729,5.6692,5.6706,5.67,5.6679,5.6693,5.6725,5.6729,5.6739,5.6734,5.6759,5.678,5.674,5.674,5.6707,5.6735,5.6826,5.6689,5.6688,5.6715,5.691,5.6941,5.6959,5.6798,5.68,5.6803,5.6911,0,5.6837,5.6888,5.6846,5.6905,5.6923,5.6861,5.6888,5.6879,5.6857,5.687,5.6847,5.6862,5.6809,5.6808,5.6833,5.681,5.6864,5.6801,5.6821,5.6823,5.6826,5.6977,5.701,5.7113,5.6924,5.6926,5.6928,0,5.6969,5.697,5.7031,5.7005,5.7011,5.7037,5.7037,5.705,5.7038,5.702,5.702,5.698,5.701,5.695,5.6991,5.6949,5.6955,5.6945,5.6948,5.6947,5.6881,5.698,5.7145,5.716,5.6949,5.6947,5.6946,0,5.709,5.7106,5.7144,5.7142,5.7113,5.7133,5.7122,5.7107,5.7112,5.7112,5.7115,5.712,5.7122,5.7127,5.7089,5.7049,5.7135,5.7072,5.7122,5.7123,5.7142,5.7141,5.7309,5.7147,5.7147,5.7147,5.7146,0,5.7214,5.7254,5.7198,5.7221,5.7264,5.7216,5.726,5.7243,5.7231,5.725,5.7197,5.7217,5.7166,5.7181,5.7152,5.719,5.7192,5.7179,5.7171,5.7183,5.7185,5.7186,5.7178,5.7151,5.715,5.7149,5.7148,0,5.7356,5.7319,5.7357,5.7327,5.7321,5.7354,5.7329,5.735,5.7325,5.7351,5.7355,5.7317,5.7331,5.7294,5.7304,5.7284,5.734,5.732,5.7343,5.7337,5.7389,5.7385,5.7563,5.7585,5.741,5.7411,5.7413,0,5.7437,5.7466,5.7439,5.7449,5.7441,5.7456,5.7461,5.7415,5.7423,5.7412,5.7435,5.7445,5.7451,5.7478,5.7451,5.7458,5.7438,5.7501,5.7439,5.7451,5.7439,5.7438,5.744,5.7513,5.7515,5.7517,5.7518,0,5.7585,5.7566,5.7574,5.7578,5.7585,5.7585,5.7581,5.7592,5.7544,5.7555,5.7569,5.7574,5.7583,5.7594,5.7596,5.7585,5.7545,5.7538,5.755,5.7563,5.7575,5.7569,5.7377,5.7534,5.7533,5.7531,5.7531,5.753,5.7698,5.7721,5.7706,5.7718,5.7711,5.7709,5.7727,5.7705,5.7716,5.772,5.7693,5.7713,5.7702,5.7699,5.7693,5.7709,5.7681,5.7698,5.7702,5.7707,5.7716,5.7574,5.7709,5.7709,5.7708,5.7708,5.7708,0,5.7843,5.7831,5.7842,5.7839,5.7848,5.7809,5.7803,5.7814,5.7832,5.7825,5.7831,5.7848,5.7859,5.7834,5.7841,5.7859,5.784,5.7862,5.786,5.7859,5.7741,5.7729,5.7877,5.7877,5.7877,5.7877,5.7877,5.7877,5.792,5.7957,5.7936,5.7969,5.7957,5.7976,5.7976,5.7974,5.7968,5.7989,5.7998,5.7981,5.7967,5.7973,5.7981,5.7974,5.7979,5.8007,5.7994,5.7884,5.7867,5.7851,5.784,5.8009,5.8009,5.811,5.8111,5.8112]}]]